[[{"header":{"parameterUnit":"m.s-1","parameterCategory":1,"la1":30.2991,"la2":30.254,"lo1":-89.0895,"lo2":-89.0444,"dy":0.0017,"dx":0.0017,"nx":28,"ny":28,"refTime":"2024-03-19T09:00:00:Z","depth":0,"parameterNumber":2,"parameterNumberName":"U-component_of_WINDS"},"data":[0,0,0,0,0,0,0,0,0,0,0,0,0,0,0,0,0,0,0,0,0,0,0,0,0,0,0,0,0,0,0,0,0,0,0,0,0,0,0,0,0,0,0,0,0,0,0,0,0,0,0,0,0,0,0,0,0,0,0.3861,0.3862,0,0.3919,0.392,0.3921,0.3948,0.3948,0.3948,0.3948,0.4006,0.4007,0.4009,0,0,0,0,0,0,0,0,0,0,0,0,0,0.3771,0.3772,0.3861,0.3862,0.3863,0.3919,0.392,0.3921,0.3948,0.3948,0.3948,0.3948,0.4005,0.4007,0.4009,0,0,0,0,0,0,0,0,0,0,0,0,0,0.3818,0.3773,0.3861,0.3883,0.3885,0.3919,0.392,0.3921,0.3948,0.3948,0.3948,0.3948,0.4004,0.4007,0.4009,0.4025,0,0,0.4016,0.4017,0,0,0,0,0,0,0,0,0.3815,0.3821,0.3879,0.3881,0.3884,0.3926,0.391,0.3956,0.3948,0.3924,0.3948,0.3948,0.3979,0.3984,0.3995,0.4028,0.403,0.4017,0.4018,0.4019,0.402,0,0,0,0,0,0,0,0.3812,0.3818,0.3884,0.388,0.3883,0.3889,0.3896,0.3918,0.3951,0.3926,0.3928,0.3935,0.3981,0.3992,0.3996,0.4031,0.4017,0.4019,0.402,0.4021,0.4078,0.4078,0,0,0,0,0,0,0.3805,0.3816,0.3882,0.3886,0.3849,0.3891,0.3898,0.3913,0.3951,0.3957,0.3935,0.3936,0.3988,0.3993,0.3998,0.4018,0.4019,0.4021,0.4023,0.4078,0.4078,0.4078,0,0,0,0,0,0,0.3803,0.3811,0.388,0.3851,0.3861,0.3892,0.3909,0.3914,0.3926,0.3958,0.3963,0.3941,0.3988,0.3995,0.4018,0.4021,0.4022,0.4024,0.4078,0.4078,0.4078,0.4059,0,0,0,0,0,0,0.38,0.381,0.3817,0.3851,0.3862,0.3899,0.3909,0.3915,0.393,0.3932,0.3965,0.397,0.3989,0.4014,0.402,0.4024,0.4026,0.4078,0.4078,0.4078,0.406,0.4059,0.4058,0,0,0,0,0,0.3797,0.3809,0.3817,0.3825,0.3872,0.3899,0.3906,0.3927,0.393,0.3937,0.3957,0.3969,0.4019,0.4016,0.4023,0.4028,0.4078,0.4078,0.4078,0.406,0.4059,0.4058,0,0,0,0,0,0,0.3775,0.3814,0.3824,0.3848,0.387,0.3904,0.3914,0.3925,0.3947,0.3948,0.3973,0.3981,0.4001,0.4017,0.4013,0.4044,0.405,0.4051,0.4033,0.4033,0.4032,0.4027,0.4028,0,0,0,0,0,0.3772,0.3792,0.3826,0.3844,0.3854,0.3882,0.3895,0.3909,0.3933,0.3943,0.3965,0.3987,0.4008,0.4021,0.4042,0.4062,0.4069,0.4068,0.4067,0.4067,0.4068,0.4078,0.4078,0.4079,0.4079,0.4079,0,0,0.3768,0.3792,0.3803,0.384,0.3859,0.3878,0.389,0.391,0.3924,0.3946,0.3969,0.3985,0.4012,0.4033,0.4043,0.4047,0.4069,0.4067,0.4066,0.4068,0.4078,0.4078,0.4078,0.4079,0.4079,0.4079,0,0,0.377,0.3791,0.3808,0.3826,0.3855,0.3873,0.3876,0.3909,0.392,0.3944,0.396,0.3977,0.4012,0.403,0.4044,0.4051,0.4062,0.4057,0.4052,0.4061,0.4061,0.4061,0.4063,0.4063,0.4057,0.4057,0.4057,0,0.3761,0.3792,0.3815,0.3833,0.3848,0.3869,0.3885,0.3902,0.3935,0.3945,0.3948,0.3992,0.4012,0.4036,0.4038,0.4049,0.4053,0.4053,0.406,0.406,0.406,0.4062,0.4063,0.4057,0.4057,0.4057,0.4057,0,0.3779,0.3799,0.3809,0.3841,0.3857,0.3874,0.3899,0.3912,0.3924,0.3942,0.3964,0.3988,0.4013,0.402,0.4033,0.4046,0.4048,0.4055,0.4061,0.4059,0.4061,0.4062,0.4055,0.4056,0.4056,0.4056,0,0,0.377,0.3813,0.3816,0.383,0.3862,0.3878,0.3896,0.3921,0.3931,0.3953,0.3968,0.3997,0.4003,0.4019,0.4033,0.4042,0.4044,0.4048,0.4049,0.4046,0.4059,0.4054,0.4054,0.4052,0.4052,0.4052,0.4057,0,0.3776,0.3809,0.3829,0.3854,0.3872,0.3891,0.3906,0.3927,0.3943,0.396,0.3977,0.3997,0.4005,0.4014,0.4023,0.4042,0.4047,0.4042,0.4065,0.4066,0.4058,0.4055,0.405,0.4053,0.4058,0.4058,0.4058,0,0.3788,0.3809,0.3836,0.3865,0.3873,0.3886,0.391,0.3927,0.395,0.3961,0.3977,0.3991,0.4009,0.4013,0.4038,0.4034,0.4044,0.4054,0.4055,0.4058,0.4062,0.4058,0.4055,0.4055,0.406,0.406,0.406,0,0.3778,0.3813,0.3833,0.3845,0.3879,0.3888,0.3902,0.3925,0.3939,0.3959,0.3968,0.399,0.4002,0.4018,0.4037,0.4038,0.406,0.4065,0.4068,0.4068,0.4072,0.4072,0.407,0.4079,0.4079,0.4079,0.4079,0,0.3783,0.3798,0.3829,0.3841,0.3858,0.3881,0.3897,0.3912,0.3933,0.3948,0.3965,0.3978,0.4003,0.402,0.4035,0.4052,0.4058,0.4066,0.407,0.4065,0.4063,0.4072,0.4072,0.4079,0.4079,0.4079,0.4079,0,0.3775,0.3796,0.3819,0.3849,0.3857,0.3868,0.3893,0.3905,0.3922,0.394,0.3946,0.3971,0.3991,0.4012,0.4039,0.4049,0.4065,0.4071,0.4058,0.406,0.4062,0.4061,0.4066,0.4067,0.4075,0.4075,0.4075,0,0.3776,0.3788,0.3819,0.3831,0.3845,0.3863,0.3876,0.3898,0.3911,0.3937,0.3946,0.3967,0.3985,0.4015,0.4036,0.4056,0.4062,0.4062,0.4065,0.4059,0.4061,0.406,0.4061,0.4061,0.4061,0.4061,0.4061,0,0.3777,0.3786,0.3805,0.3827,0.3843,0.3861,0.388,0.3888,0.3913,0.3927,0.3947,0.3961,0.3988,0.4008,0.4031,0.4045,0.4057,0.4059,0.4061,0.4056,0.4047,0.4051,0.4055,0.4059,0.406,0.406,0.406,0.406,0.3773,0.3784,0.3807,0.3827,0.3844,0.3861,0.3873,0.3891,0.3908,0.3932,0.3943,0.3964,0.3985,0.4016,0.403,0.4045,0.4049,0.4051,0.4052,0.4052,0.4051,0.4045,0.4049,0.4049,0.405,0.405,0.405,0,0.3774,0.379,0.3808,0.3833,0.3849,0.3858,0.3879,0.3891,0.3909,0.3928,0.3945,0.3968,0.3987,0.4008,0.4029,0.4037,0.4043,0.4041,0.4041,0.4044,0.4047,0.4043,0.4036,0.4036,0.4036,0.4036,0.4036,0.4036,0.3776,0.3795,0.3807,0.3834,0.3849,0.3869,0.388,0.3895,0.391,0.3935,0.3951,0.3965,0.3985,0.4006,0.4024,0.403,0.4036,0.4033,0.404,0.4043,0.4044,0.4045,0.4041,0.4035,0.4035,0.4036,0.4036,0.4036]},{"header":{"parameterUnit":"m.s-1","parameterCategory":1,"la1":30.2991,"la2":30.254,"lo1":-89.0895,"lo2":-89.0444,"dy":0.0017,"dx":0.0017,"nx":28,"ny":28,"refTime":"2024-03-19T09:00:00:Z","depth":0,"parameterNumber":3,"parameterNumberName":"V-component_of_WINDS"},"data":[0,0,0,0,0,0,0,0,0,0,0,0,0,0,0,0,0,0,0,0,0,0,0,0,0,0,0,0,0,0,0,0,0,0,0,0,0,0,0,0,0,0,0,0,0,0,0,0,0,0,0,0,0,0,0,0,0,0,2.1987,2.1987,0,2.2022,2.2022,2.2022,2.1989,2.1987,2.1986,2.1985,2.2019,2.2021,2.2023,0,0,0,0,0,0,0,0,0,0,0,0,0,2.189,2.1892,2.1987,2.1987,2.1988,2.2021,2.2022,2.2022,2.1989,2.1987,2.1986,2.1984,2.2018,2.2021,2.2023,0,0,0,0,0,0,0,0,0,0,0,0,0,2.1929,2.1892,2.1987,2.1975,2.1975,2.2021,2.2022,2.2023,2.1989,2.1987,2.1985,2.1983,2.2017,2.2021,2.2024,2.2083,0,0,2.2034,2.2035,0,0,0,0,0,0,0,0,2.1927,2.1932,2.1977,2.1976,2.1975,2.1999,2.2,2.2043,2.199,2.1984,2.1985,2.1982,2.2014,2.2017,2.2028,2.2085,2.2087,2.2034,2.2036,2.2037,2.2038,0,0,0,0,0,0,0,2.1924,2.1931,2.2001,2.1977,2.1977,2.1967,2.1971,2.2008,2.2009,2.1984,2.1982,2.1986,2.2013,2.2025,2.2029,2.2087,2.2034,2.2037,2.2039,2.204,2.2192,2.2194,0,0,0,0,0,0,2.1923,2.1929,2.1999,2.2002,2.1946,2.1971,2.1975,2.1993,2.2009,2.2009,2.1988,2.1985,2.202,2.2025,2.203,2.2099,2.2037,2.204,2.2042,2.219,2.2193,2.2195,0,0,0,0,0,0,2.1921,2.1929,2.1998,2.1965,2.1973,2.1975,2.1996,2.1995,2.2007,2.2012,2.2012,2.2,2.2019,2.2025,2.207,2.21,2.2042,2.2045,2.2188,2.2191,2.2194,2.2239,0,0,0,0,0,0,2.1918,2.1929,2.1952,2.1965,2.1975,2.2039,2.1998,2.1997,2.2013,2.2009,2.2023,2.2024,2.2018,2.2065,2.2073,2.2103,2.2047,2.2185,2.2189,2.2193,2.2235,2.2244,2.2251,0,0,0,0,0,2.1915,2.1964,2.1954,2.1963,2.2004,2.2041,2.2046,2.2039,2.2015,2.2038,2.2041,2.2023,2.2095,2.207,2.2079,2.211,2.2183,2.2188,2.2193,2.2231,2.2242,2.2251,0,0,0,0,0,0,2.1955,2.1966,2.1954,2.201,2.2024,2.2035,2.2064,2.205,2.2072,2.2067,2.2057,2.206,2.2107,2.2113,2.2085,2.2167,2.2135,2.2142,2.2162,2.2172,2.218,2.2177,2.205,0,0,0,0,0,2.197,2.2,2.2007,2.2055,2.2063,2.2062,2.2078,2.2071,2.2086,2.2092,2.2098,2.2113,2.2138,2.2155,2.2179,2.2236,2.2237,2.2261,2.2269,2.2276,2.2281,2.2309,2.232,2.2211,2.2211,2.221,0,0,2.2002,2.2012,2.2031,2.2063,2.2074,2.2103,2.2068,2.2101,2.2123,2.2097,2.2139,2.2144,2.2159,2.221,2.2232,2.2216,2.2312,2.2282,2.2287,2.2289,2.2315,2.2326,2.2335,2.2214,2.2213,2.2213,0,0,2.2075,2.2086,2.2126,2.2137,2.2153,2.2152,2.2162,2.2174,2.2176,2.2219,2.2199,2.2224,2.2269,2.228,2.2292,2.2367,2.235,2.2375,2.2416,2.2443,2.2452,2.2459,2.2485,2.2494,2.2381,2.2381,2.2381,0,2.2113,2.2157,2.2148,2.2183,2.2196,2.2174,2.2214,2.2225,2.2248,2.2258,2.224,2.2294,2.2303,2.2355,2.2373,2.2383,2.2393,2.2373,2.2452,2.2459,2.2466,2.249,2.2499,2.2383,2.2383,2.2383,2.2383,0,2.2201,2.2232,2.2263,2.2285,2.2303,2.234,2.2335,2.2354,2.2345,2.2345,2.2387,2.2397,2.2421,2.2433,2.2425,2.2483,2.2472,2.2453,2.242,2.2479,2.2501,2.2511,2.2387,2.2386,2.2386,2.2385,0,0,2.2302,2.2318,2.2329,2.2338,2.2353,2.2377,2.2411,2.2435,2.2451,2.2467,2.2495,2.2533,2.2514,2.2528,2.252,2.2545,2.2601,2.2522,2.2522,2.2535,2.2664,2.2677,2.2688,2.259,2.2592,2.2594,2.2662,0,2.2374,2.2435,2.2427,2.2485,2.2512,2.249,2.252,2.2532,2.2533,2.2556,2.2556,2.2583,2.2557,2.2565,2.2588,2.2589,2.2627,2.2584,2.2615,2.2616,2.2611,2.27,2.2715,2.2779,2.2671,2.2672,2.2673,0,2.2467,2.2486,2.2547,2.2556,2.2567,2.2594,2.2614,2.2637,2.2649,2.2648,2.2662,2.2649,2.2683,2.265,2.2695,2.2666,2.2678,2.2681,2.2683,2.2685,2.2648,2.2703,2.28,2.2809,2.2687,2.2686,2.2685,0,2.2532,2.2573,2.2614,2.2622,2.2635,2.2654,2.266,2.267,2.2685,2.2702,2.2711,2.2732,2.2744,2.276,2.2753,2.273,2.2799,2.2766,2.2798,2.2798,2.2813,2.2812,2.2912,2.2822,2.2822,2.2822,2.2822,0,2.2613,2.2651,2.2643,2.2668,2.2709,2.2699,2.2739,2.2742,2.2751,2.2776,2.2758,2.2782,2.2772,2.2794,2.2789,2.2826,2.2831,2.283,2.2828,2.2832,2.2831,2.2839,2.2834,2.2825,2.2824,2.2824,2.2823,0,2.2693,2.269,2.2732,2.274,2.2743,2.2772,2.2778,2.2801,2.28,2.2831,2.2837,2.2835,2.286,2.2855,2.2883,2.2879,2.2925,2.2919,2.2921,2.2919,2.2951,2.2948,2.3058,2.3071,2.2975,2.2976,2.2976,0,2.2745,2.2773,2.2783,2.2798,2.2805,2.283,2.2844,2.2834,2.285,2.2865,2.2885,2.2909,2.2927,2.2968,2.2968,2.2989,2.2981,2.3018,2.2984,2.2986,2.298,2.2978,2.298,2.3025,2.3026,2.3027,2.3028,0,2.2836,2.2833,2.2854,2.2874,2.2891,2.2906,2.292,2.2933,2.2924,2.2942,2.2967,2.2981,2.3009,2.3031,2.305,2.3055,2.304,2.3039,2.3047,2.305,2.305,2.3049,2.2939,2.3036,2.3035,2.3035,2.3034,2.3034,2.2903,2.2926,2.2936,2.296,2.2968,2.2981,2.3002,2.3003,2.3024,2.3046,2.3039,2.3067,2.3076,2.31,2.3107,2.3128,2.3114,2.3127,2.313,2.3132,2.3136,2.3047,2.3132,2.3132,2.3131,2.3131,2.3131,0,2.2992,2.2997,2.3019,2.3038,2.3056,2.304,2.3053,2.3069,2.3094,2.3105,2.3122,2.315,2.3172,2.3174,2.3193,2.321,2.3203,2.3215,2.3214,2.3215,2.3148,2.3138,2.322,2.322,2.322,2.322,2.322,2.322,2.3041,2.3079,2.3076,2.3117,2.3121,2.3149,2.3158,2.3169,2.3177,2.3208,2.3226,2.3227,2.3234,2.3254,2.3272,2.3272,2.328,2.3294,2.3291,2.3229,2.322,2.3211,2.3202,2.3296,2.3296,2.3356,2.3357,2.3357]}]]